Total_Precipitation_Accumulation
0.02 0.02 0.02 0.05 0.09 0.14 0.17 0.18 0.19 0.18 0.17 0.14 0.14 0.13 0.12 0.11 0.13 0.15 0.18 0.20 0.23 0.28 0.33 0.35 0.35 0.36 0.36 0.35 0.39 0.43 0.46 0.53 0.52 0.46 0.51 0.56 0.49 0.33 0.23 0.19 0.16 0.12 0.09
0.02 0.02 0.01 0.01 0.03 0.06 0.10 0.14 0.16 0.15 0.14 0.14 0.13 0.12 0.10 0.10 0.12 0.16 0.19 0.20 0.22 0.26 0.32 0.39 0.41 0.38 0.38 0.38 0.44 0.45 0.48 0.58 0.60 0.45 0.44 0.49 0.44 0.34 0.22 0.18 0.11 0.08 0.07
0.01 0.01 0.00 0.00 0.00 0.01 0.04 0.07 0.10 0.12 0.13 0.13 0.13 0.11 0.09 0.08 0.08 0.11 0.15 0.20 0.24 0.26 0.30 0.37 0.42 0.47 0.46 0.44 0.46 0.45 0.46 0.59 0.65 0.56 0.49 0.47 0.46 0.33 0.24 0.17 0.11 0.07 0.05
0.01 0.01 0.01 0.01 0.01 0.01 0.02 0.03 0.05 0.08 0.11 0.12 0.13 0.12 0.11 0.09 0.07 0.06 0.08 0.11 0.15 0.22 0.30 0.34 0.38 0.45 0.50 0.48 0.49 0.54 0.55 0.58 0.63 0.62 0.61 0.60 0.51 0.40 0.32 0.24 0.18 0.10 0.06
0.04 0.05 0.05 0.05 0.05 0.05 0.04 0.04 0.05 0.07 0.09 0.13 0.14 0.13 0.13 0.11 0.07 0.07 0.08 0.07 0.08 0.12 0.19 0.26 0.29 0.34 0.40 0.48 0.49 0.52 0.59 0.67 0.78 0.80 0.77 0.81 0.69 0.55 0.43 0.29 0.22 0.15 0.10
0.04 0.04 0.04 0.04 0.04 0.04 0.04 0.04 0.05 0.07 0.11 0.15 0.17 0.17 0.16 0.11 0.09 0.06 0.06 0.07 0.08 0.09 0.12 0.19 0.22 0.24 0.27 0.31 0.38 0.45 0.50 0.56 0.68 0.80 0.88 0.90 0.83 0.68 0.50 0.35 0.23 0.14 0.13
0.01 0.02 0.02 0.03 0.04 0.05 0.06 0.06 0.07 0.10 0.13 0.18 0.21 0.21 0.20 0.20 0.14 0.09 0.06 0.08 0.09 0.10 0.11 0.13 0.13 0.14 0.20 0.23 0.25 0.30 0.35 0.38 0.44 0.55 0.66 0.71 0.75 0.69 0.53 0.37 0.25 0.17 0.11
0.01 0.02 0.03 0.04 0.06 0.07 0.10 0.12 0.14 0.15 0.17 0.20 0.22 0.24 0.25 0.25 0.18 0.12 0.09 0.09 0.12 0.12 0.13 0.12 0.12 0.13 0.14 0.16 0.21 0.22 0.22 0.24 0.26 0.30 0.38 0.48 0.52 0.50 0.41 0.35 0.27 0.22 0.18
0.02 0.03 0.05 0.07 0.09 0.11 0.13 0.17 0.22 0.24 0.23 0.27 0.29 0.30 0.31 0.30 0.23 0.15 0.11 0.12 0.14 0.14 0.15 0.15 0.15 0.14 0.10 0.10 0.15 0.17 0.17 0.17 0.17 0.21 0.25 0.32 0.38 0.36 0.30 0.25 0.23 0.19 0.19
0.05 0.07 0.08 0.11 0.16 0.18 0.19 0.22 0.26 0.30 0.30 0.33 0.36 0.39 0.40 0.39 0.30 0.19 0.14 0.14 0.16 0.17 0.20 0.20 0.18 0.14 0.11 0.09 0.11 0.13 0.13 0.13 0.12 0.13 0.17 0.21 0.21 0.23 0.23 0.18 0.14 0.14 0.13
0.09 0.10 0.11 0.14 0.19 0.21 0.25 0.28 0.30 0.32 0.33 0.36 0.40 0.43 0.48 0.51 0.42 0.24 0.18 0.18 0.18 0.20 0.22 0.23 0.22 0.19 0.15 0.12 0.10 0.10 0.10 0.11 0.11 0.11 0.13 0.17 0.19 0.19 0.19 0.18 0.16 0.12 0.09
0.12 0.12 0.13 0.14 0.15 0.17 0.24 0.28 0.31 0.36 0.38 0.41 0.47 0.54 0.57 0.59 0.55 0.38 0.22 0.19 0.22 0.25 0.28 0.30 0.29 0.26 0.23 0.19 0.14 0.11 0.09 0.10 0.13 0.13 0.14 0.15 0.16 0.17 0.18 0.19 0.19 0.17 0.12
0.14 0.14 0.15 0.16 0.18 0.21 0.25 0.26 0.27 0.30 0.31 0.36 0.50 0.64 0.71 0.70 0.62 0.48 0.31 0.22 0.24 0.28 0.31 0.40 0.41 0.38 0.35 0.30 0.23 0.16 0.12 0.10 0.13 0.14 0.12 0.12 0.11 0.10 0.12 0.17 0.20 0.20 0.17
0.18 0.18 0.18 0.20 0.21 0.22 0.27 0.28 0.28 0.28 0.28 0.34 0.49 0.63 0.72 0.71 0.61 0.46 0.35 0.28 0.28 0.32 0.33 0.43 0.52 0.54 0.52 0.47 0.37 0.25 0.16 0.14 0.13 0.13 0.12 0.11 0.12 0.11 0.11 0.11 0.13 0.15 0.15
0.22 0.21 0.22 0.23 0.24 0.23 0.25 0.27 0.26 0.27 0.26 0.28 0.42 0.62 0.68 0.61 0.49 0.39 0.33 0.33 0.32 0.36 0.40 0.51 0.66 0.71 0.73 0.66 0.51 0.35 0.24 0.21 0.18 0.16 0.14 0.12 0.12 0.12 0.11 0.09 0.08 0.07 0.07
0.29 0.25 0.25 0.24 0.24 0.24 0.24 0.24 0.19 0.17 0.15 0.12 0.17 0.32 0.44 0.40 0.32 0.29 0.27 0.28 0.26 0.27 0.36 0.52 0.71 0.78 0.81 0.76 0.62 0.46 0.33 0.27 0.24 0.19 0.17 0.14 0.11 0.11 0.10 0.08 0.07 0.06 0.05
0.32 0.29 0.27 0.25 0.22 0.20 0.19 0.22 0.25 0.24 0.14 0.10 0.09 0.12 0.18 0.19 0.21 0.28 0.30 0.24 0.20 0.17 0.25 0.39 0.58 0.73 0.77 0.77 0.66 0.50 0.39 0.31 0.28 0.24 0.20 0.17 0.12 0.10 0.10 0.08 0.07 0.05 0.04
0.29 0.27 0.25 0.22 0.19 0.17 0.18 0.20 0.21 0.29 0.30 0.22 0.13 0.09 0.10 0.10 0.15 0.31 0.39 0.27 0.18 0.15 0.19 0.27 0.41 0.62 0.70 0.72 0.65 0.55 0.46 0.38 0.34 0.29 0.25 0.20 0.13 0.10 0.09 0.08 0.06 0.04 0.03
0.28 0.23 0.19 0.18 0.18 0.17 0.18 0.19 0.21 0.27 0.35 0.41 0.33 0.12 0.10 0.11 0.15 0.35 0.48 0.31 0.18 0.15 0.15 0.19 0.29 0.47 0.59 0.65 0.59 0.53 0.49 0.43 0.37 0.32 0.28 0.23 0.16 0.11 0.09 0.07 0.06 0.04 0.03
0.23 0.18 0.14 0.14 0.15 0.16 0.16 0.17 0.22 0.31 0.40 0.49 0.45 0.21 0.11 0.12 0.15 0.34 0.49 0.33 0.20 0.16 0.13 0.16 0.23 0.36 0.48 0.56 0.54 0.49 0.49 0.45 0.39 0.32 0.28 0.23 0.17 0.12 0.09 0.07 0.05 0.03 0.02
0.22 0.17 0.12 0.10 0.12 0.14 0.15 0.19 0.25 0.35 0.44 0.50 0.41 0.21 0.13 0.11 0.15 0.29 0.41 0.30 0.20 0.16 0.13 0.13 0.18 0.29 0.38 0.45 0.45 0.41 0.43 0.45 0.37 0.29 0.25 0.20 0.15 0.11 0.08 0.06 0.04 0.03 0.02
0.18 0.15 0.13 0.12 0.13 0.15 0.17 0.22 0.28 0.39 0.48 0.49 0.34 0.17 0.13 0.14 0.18 0.28 0.31 0.25 0.20 0.15 0.12 0.13 0.18 0.25 0.30 0.34 0.33 0.32 0.36 0.39 0.31 0.23 0.19 0.15 0.11 0.08 0.06 0.04 0.04 0.03 0.02
0.18 0.15 0.14 0.12 0.13 0.11 0.13 0.20 0.26 0.33 0.42 0.43 0.28 0.17 0.14 0.18 0.19 0.22 0.24 0.22 0.19 0.15 0.14 0.16 0.18 0.20 0.24 0.25 0.23 0.23 0.26 0.27 0.20 0.14 0.12 0.09 0.07 0.05 0.03 0.02 0.02 0.02 0.02
0.16 0.14 0.12 0.10 0.09 0.09 0.11 0.14 0.19 0.24 0.32 0.32 0.22 0.16 0.14 0.17 0.17 0.17 0.19 0.18 0.17 0.15 0.16 0.16 0.15 0.16 0.18 0.18 0.17 0.17 0.16 0.14 0.10 0.07 0.06 0.04 0.04 0.03 0.02 0.01 0.01 0.01 0.01
0.17 0.16 0.13 0.11 0.09 0.08 0.09 0.12 0.17 0.21 0.22 0.19 0.15 0.13 0.15 0.18 0.17 0.16 0.15 0.14 0.14 0.14 0.14 0.13 0.12 0.12 0.11 0.10 0.09 0.08 0.08 0.07 0.05 0.03 0.02 0.01 0.01 0.02 0.01 0.00 0.00 0.00 0.01
0.17 0.19 0.18 0.17 0.15 0.13 0.12 0.13 0.16 0.15 0.12 0.09 0.09 0.12 0.15 0.17 0.18 0.17 0.14 0.11 0.13 0.14 0.12 0.10 0.08 0.07 0.06 0.05 0.05 0.03 0.02 0.02 0.01 0.01 0.00 0.00 0.01 0.01 0.01 0.00 0.00 0.00 0.00